QPF
0.01 0.02 0.03 0.07 0.12 0.10 0.06 0.04 0.03 0.03 0.02 0.02 0.02 0.02 0.03 0.03 0.07 0.10 0.10 0.08 0.06 0.06 0.06 0.05 0.06 0.08 0.09 0.08 0.09 0.11 0.13 0.11 0.12 0.12 0.14 0.16 0.12 0.09 0.07 0.07 0.05 0.05 0.05 0.05 0.05 0.06 0.05 0.05 0.04
0.01 0.01 0.03 0.07 0.10 0.08 0.05 0.03 0.03 0.04 0.03 0.03 0.02 0.02 0.02 0.03 0.04 0.06 0.07 0.07 0.06 0.06 0.06 0.05 0.05 0.07 0.08 0.08 0.09 0.11 0.12 0.12 0.11 0.11 0.11 0.14 0.17 0.13 0.10 0.09 0.07 0.07 0.07 0.07 0.07 0.06 0.04 0.04 0.04
0.01 0.01 0.04 0.06 0.05 0.06 0.05 0.03 0.04 0.03 0.03 0.01 0.00 0.01 0.03 0.05 0.06 0.06 0.06 0.07 0.08 0.05 0.05 0.08 0.07 0.06 0.05 0.06 0.07 0.07 0.07 0.09 0.10 0.09 0.09 0.11 0.15 0.16 0.14 0.10 0.09 0.08 0.08 0.07 0.06 0.06 0.05 0.03 0.03
0.02 0.03 0.04 0.03 0.02 0.01 0.02 0.03 0.02 0.02 0.01 0.00 0.01 0.01 0.04 0.06 0.07 0.06 0.07 0.07 0.07 0.06 0.07 0.09 0.08 0.06 0.05 0.05 0.05 0.05 0.05 0.07 0.08 0.09 0.10 0.09 0.08 0.08 0.11 0.11 0.09 0.08 0.08 0.07 0.07 0.05 0.04 0.03 0.02
0.05 0.05 0.05 0.03 0.02 0.02 0.01 0.02 0.01 0.01 0.02 0.01 0.01 0.03 0.06 0.08 0.07 0.06 0.07 0.07 0.05 0.06 0.09 0.13 0.11 0.07 0.05 0.05 0.04 0.04 0.04 0.05 0.06 0.07 0.08 0.07 0.07 0.07 0.07 0.12 0.11 0.10 0.09 0.08 0.06 0.04 0.03 0.02 0.02
0.06 0.04 0.03 0.03 0.03 0.03 0.02 0.01 0.01 0.01 0.03 0.02 0.02 0.05 0.07 0.07 0.05 0.05 0.04 0.04 0.04 0.04 0.07 0.10 0.09 0.07 0.06 0.06 0.04 0.04 0.04 0.05 0.06 0.07 0.07 0.05 0.05 0.06 0.06 0.11 0.12 0.11 0.09 0.07 0.05 0.03 0.02 0.02 0.02
0.04 0.02 0.01 0.02 0.02 0.03 0.03 0.01 0.02 0.03 0.02 0.01 0.01 0.02 0.05 0.05 0.04 0.03 0.02 0.02 0.03 0.04 0.06 0.09 0.08 0.08 0.07 0.05 0.04 0.03 0.05 0.06 0.07 0.07 0.07 0.06 0.05 0.06 0.07 0.09 0.13 0.14 0.10 0.07 0.05 0.03 0.03 0.02 0.02
0.02 0.01 0.01 0.01 0.01 0.02 0.02 0.00 0.01 0.01 0.01 0.01 0.01 0.01 0.03 0.03 0.02 0.02 0.01 0.02 0.03 0.05 0.06 0.07 0.09 0.08 0.06 0.05 0.04 0.05 0.06 0.08 0.08 0.08 0.08 0.07 0.09 0.10 0.08 0.06 0.10 0.13 0.12 0.08 0.05 0.04 0.04 0.02 0.02
0.01 0.01 0.01 0.01 0.01 0.01 0.01 0.01 0.00 0.00 0.00 0.01 0.02 0.01 0.01 0.01 0.01 0.02 0.02 0.02 0.03 0.05 0.08 0.10 0.15 0.12 0.08 0.06 0.06 0.06 0.07 0.10 0.12 0.11 0.09 0.09 0.12 0.12 0.08 0.06 0.06 0.08 0.09 0.06 0.05 0.03 0.05 0.07 0.06
0.01 0.01 0.00 0.00 0.00 0.00 0.00 0.01 0.01 0.01 0.00 0.01 0.02 0.01 0.01 0.01 0.02 0.05 0.04 0.04 0.03 0.04 0.07 0.11 0.17 0.16 0.10 0.06 0.08 0.10 0.11 0.13 0.14 0.13 0.12 0.12 0.14 0.15 0.06 0.04 0.04 0.04 0.05 0.04 0.04 0.03 0.09 0.21 0.16
0.00 0.01 0.00 0.00 0.00 0.00 0.00 0.00 0.00 0.02 0.02 0.02 0.02 0.02 0.01 0.01 0.04 0.06 0.05 0.05 0.04 0.04 0.05 0.09 0.12 0.14 0.12 0.09 0.07 0.08 0.10 0.12 0.12 0.11 0.10 0.11 0.14 0.12 0.06 0.06 0.06 0.05 0.03 0.05 0.05 0.04 0.13 0.31 0.36
0.00 0.00 0.00 0.00 0.00 0.00 0.00 0.00 0.01 0.01 0.01 0.01 0.01 0.01 0.01 0.03 0.06 0.08 0.07 0.06 0.05 0.05 0.07 0.09 0.10 0.11 0.10 0.08 0.08 0.08 0.07 0.09 0.11 0.10 0.08 0.09 0.14 0.12 0.09 0.11 0.09 0.08 0.07 0.07 0.06 0.07 0.11 0.18 0.28
0.00 0.00 0.00 0.00 0.00 0.00 0.00 0.00 0.01 0.01 0.00 0.00 0.01 0.01 0.01 0.02 0.06 0.09 0.07 0.05 0.05 0.06 0.08 0.08 0.06 0.07 0.09 0.11 0.12 0.09 0.08 0.08 0.07 0.06 0.06 0.08 0.11 0.10 0.08 0.08 0.09 0.08 0.07 0.07 0.07 0.07 0.09 0.12 0.16
0.00 0.00 0.00 0.00 0.00 0.00 0.00 0.01 0.02 0.01 0.01 0.01 0.01 0.01 0.01 0.01 0.04 0.06 0.05 0.05 0.05 0.04 0.04 0.04 0.04 0.04 0.05 0.07 0.08 0.09 0.08 0.07 0.05 0.05 0.06 0.08 0.09 0.08 0.07 0.06 0.07 0.08 0.08 0.07 0.09 0.06 0.08 0.14 0.19
0.00 0.01 0.00 0.00 0.00 0.00 0.00 0.01 0.01 0.01 0.01 0.01 0.01 0.01 0.01 0.02 0.03 0.04 0.04 0.04 0.04 0.03 0.03 0.03 0.03 0.03 0.05 0.05 0.05 0.06 0.05 0.06 0.06 0.06 0.08 0.08 0.07 0.05 0.05 0.06 0.07 0.08 0.08 0.07 0.07 0.06 0.07 0.10 0.14
0.01 0.01 0.01 0.00 0.00 0.00 0.01 0.01 0.00 0.00 0.01 0.01 0.01 0.01 0.01 0.02 0.03 0.02 0.03 0.04 0.04 0.02 0.02 0.04 0.02 0.02 0.03 0.04 0.04 0.04 0.05 0.05 0.04 0.04 0.07 0.07 0.06 0.04 0.05 0.06 0.07 0.08 0.07 0.06 0.06 0.07 0.07 0.10 0.11
0.01 0.01 0.01 0.00 0.00 0.00 0.00 0.00 0.00 0.00 0.00 0.00 0.01 0.02 0.01 0.01 0.01 0.02 0.02 0.02 0.03 0.03 0.03 0.03 0.03 0.03 0.02 0.03 0.03 0.03 0.04 0.03 0.02 0.02 0.04 0.05 0.03 0.04 0.05 0.07 0.07 0.05 0.05 0.06 0.05 0.06 0.06 0.09 0.09
0.01 0.01 0.01 0.01 0.00 0.00 0.00 0.00 0.00 0.00 0.00 0.00 0.00 0.01 0.01 0.01 0.01 0.01 0.01 0.01 0.02 0.02 0.03 0.02 0.02 0.03 0.03 0.03 0.03 0.04 0.03 0.04 0.03 0.03 0.03 0.02 0.02 0.02 0.04 0.04 0.04 0.04 0.06 0.07 0.06 0.07 0.06 0.07 0.08
0.01 0.01 0.01 0.00 0.00 0.00 0.00 0.00 0.00 0.00 0.00 0.00 0.00 0.00 0.00 0.01 0.01 0.01 0.01 0.01 0.02 0.02 0.02 0.02 0.03 0.03 0.04 0.05 0.04 0.04 0.04 0.04 0.03 0.02 0.01 0.01 0.01 0.01 0.04 0.04 0.06 0.06 0.06 0.05 0.05 0.06 0.06 0.05 0.05
0.00 0.01 0.01 0.00 0.00 0.00 0.00 0.00 0.00 0.00 0.00 0.00 0.00 0.00 0.00 0.00 0.00 0.01 0.01 0.00 0.01 0.01 0.01 0.02 0.02 0.02 0.02 0.03 0.03 0.03 0.02 0.02 0.03 0.02 0.01 0.00 0.01 0.01 0.04 0.06 0.05 0.05 0.06 0.05 0.05 0.06 0.06 0.05 0.04
0.01 0.01 0.01 0.00 0.00 0.00 0.01 0.02 0.01 0.00 0.00 0.00 0.00 0.00 0.00 0.00 0.00 0.00 0.00 0.01 0.01 0.02 0.01 0.01 0.02 0.02 0.02 0.03 0.02 0.03 0.03 0.04 0.04 0.03 0.03 0.02 0.01 0.02 0.03 0.04 0.04 0.04 0.05 0.06 0.04 0.05 0.05 0.05 0.04
0.00 0.00 0.00 0.00 0.01 0.02 0.03 0.05 0.02 0.00 0.00 0.00 0.00 0.00 0.00 0.00 0.00 0.00 0.01 0.01 0.01 0.01 0.01 0.01 0.01 0.02 0.02 0.03 0.03 0.03 0.04 0.06 0.05 0.04 0.03 0.03 0.02 0.02 0.02 0.02 0.03 0.04 0.05 0.05 0.05 0.06 0.05 0.06 0.06
0.00 0.00 0.00 0.00 0.01 0.03 0.02 0.03 0.02 0.00 0.00 0.00 0.00 0.00 0.00 0.00 0.00 0.00 0.01 0.01 0.01 0.00 0.00 0.01 0.02 0.02 0.02 0.04 0.04 0.04 0.04 0.04 0.04 0.04 0.04 0.03 0.02 0.01 0.00 0.01 0.03 0.03 0.05 0.04 0.04 0.05 0.04 0.06 0.06
0.00 0.00 0.00 0.00 0.02 0.04 0.01 0.01 0.01 0.01 0.00 0.00 0.00 0.00 0.00 0.00 0.00 0.00 0.00 0.01 0.00 0.00 0.00 0.01 0.02 0.03 0.03 0.03 0.04 0.04 0.04 0.05 0.05 0.05 0.04 0.02 0.02 0.01 0.00 0.01 0.02 0.03 0.04 0.03 0.03 0.03 0.04 0.04 0.05
0.00 0.00 0.01 0.02 0.02 0.03 0.01 0.00 0.00 0.00 0.00 0.00 0.00 0.00 0.00 0.00 0.00 0.00 0.00 0.00 0.00 0.00 0.01 0.01 0.02 0.03 0.03 0.03 0.04 0.04 0.03 0.03 0.03 0.03 0.03 0.02 0.01 0.01 0.01 0.01 0.02 0.02 0.02 0.02 0.02 0.03 0.04 0.03 0.04
0.00 0.00 0.01 0.02 0.02 0.01 0.01 0.00 0.00 0.00 0.00 0.00 0.00 0.00 0.00 0.00 0.00 0.00 0.00 0.00 0.00 0.01 0.01 0.01 0.04 0.05 0.03 0.03 0.04 0.04 0.04 0.03 0.03 0.03 0.02 0.02 0.01 0.01 0.01 0.01 0.02 0.02 0.02 0.02 0.03 0.02 0.02 0.02 0.02
0.00 0.00 0.00 0.00 0.01 0.01 0.01 0.01 0.00 0.00 0.00 0.00 0.00 0.00 0.00 0.00 0.00 0.00 0.00 0.00 0.00 0.01 0.01 0.02 0.03 0.03 0.02 0.02 0.03 0.04 0.03 0.03 0.03 0.02 0.01 0.01 0.01 0.01 0.01 0.01 0.01 0.01 0.02 0.02 0.02 0.01 0.01 0.02 0.02
0.00 0.00 0.00 0.00 0.02 0.03 0.02 0.01 0.01 0.00 0.00 0.00 0.00 0.00 0.00 0.00 0.00 0.00 0.02 0.01 0.00 0.00 0.01 0.01 0.01 0.02 0.02 0.02 0.02 0.02 0.02 0.02 0.02 0.01 0.02 0.01 0.01 0.01 0.01 0.01 0.01 0.01 0.01 0.01 0.02 0.02 0.01 0.02 0.02
0.00 0.00 0.00 0.00 0.01 0.02 0.04 0.02 0.01 0.00 0.00 0.00 0.00 0.00 0.00 0.01 0.00 0.01 0.01 0.00 0.00 0.00 0.00 0.00 0.01 0.01 0.01 0.01 0.02 0.02 0.02 0.02 0.02 0.03 0.03 0.02 0.02 0.02 0.02 0.01 0.01 0.01 0.01 0.01 0.02 0.01 0.01 0.02 0.01
0.00 0.00 0.00 0.00 0.01 0.00 0.01 0.01 0.00 0.00 0.00 0.00 0.00 0.00 0.00 0.00 0.00 0.00 0.00 0.00 0.00 0.00 0.00 0.00 0.01 0.01 0.01 0.01 0.02 0.02 0.01 0.01 0.02 0.03 0.03 0.03 0.02 0.02 0.02 0.02 0.02 0.01 0.01 0.02 0.01 0.01 0.01 0.01 0.01
MSLP
1001.58 1002.51 1003.73 1005.05 1006.31 1007.33 1008.00 1008.31 1008.32 1008.13 1007.91 1007.78 1007.81 1008.02 1008.38 1008.80 1009.22 1009.55 1009.78 1009.92 1010.01 1010.12 1010.27 1010.48 1010.74 1010.99 1011.18 1011.27 1011.24 1011.10 1010.91 1010.71 1010.56 1010.48 1010.50 1010.57 1010.66 1010.72 1010.71 1010.62 1010.46 1010.26 1010.07 1009.92 1009.84 1009.84 1009.92 1010.05 1010.21
1002.22 1003.42 1004.83 1006.24 1007.45 1008.32 1008.78 1008.83 1008.58 1008.18 1007.80 1007.57 1007.55 1007.76 1008.13 1008.56 1008.97 1009.29 1009.49 1009.61 1009.71 1009.85 1010.07 1010.40 1010.80 1011.20 1011.53 1011.72 1011.76 1011.65 1011.43 1011.17 1010.95 1010.81 1010.77 1010.82 1010.93 1011.04 1011.11 1011.10 1011.03 1010.91 1010.77 1010.64 1010.56 1010.52 1010.54 1010.60 1010.68
1003.04 1004.46 1005.99 1007.41 1008.53 1009.23 1009.45 1009.26 1008.79 1008.22 1007.73 1007.44 1007.41 1007.62 1007.99 1008.41 1008.78 1009.04 1009.19 1009.27 1009.35 1009.51 1009.81 1010.24 1010.77 1011.32 1011.78 1012.10 1012.22 1012.14 1011.92 1011.64 1011.36 1011.16 1011.08 1011.10 1011.20 1011.33 1011.45 1011.52 1011.53 1011.48 1011.41 1011.34 1011.28 1011.24 1011.22 1011.22 1011.24
1003.89 1005.45 1007.03 1008.40 1009.38 1009.89 1009.90 1009.52 1008.89 1008.23 1007.69 1007.40 1007.39 1007.62 1007.99 1008.38 1008.70 1008.88 1008.95 1008.97 1009.02 1009.18 1009.52 1010.03 1010.67 1011.33 1011.92 1012.34 1012.53 1012.51 1012.32 1012.04 1011.74 1011.52 1011.40 1011.40 1011.48 1011.62 1011.76 1011.88 1011.95 1011.98 1011.98 1011.96 1011.94 1011.92 1011.89 1011.84 1011.80
1004.63 1006.24 1007.78 1009.04 1009.87 1010.19 1010.04 1009.53 1008.84 1008.16 1007.66 1007.44 1007.49 1007.76 1008.14 1008.50 1008.76 1008.86 1008.85 1008.79 1008.79 1008.94 1009.29 1009.84 1010.54 1011.27 1011.92 1012.40 1012.66 1012.70 1012.55 1012.30 1012.03 1011.82 1011.70 1011.69 1011.77 1011.90 1012.05 1012.19 1012.29 1012.37 1012.43 1012.47 1012.49 1012.49 1012.45 1012.38 1012.29
1005.11 1006.69 1008.13 1009.25 1009.91 1010.09 1009.84 1009.29 1008.62 1008.02 1007.64 1007.54 1007.70 1008.04 1008.44 1008.78 1008.98 1009.00 1008.90 1008.77 1008.72 1008.84 1009.17 1009.71 1010.41 1011.14 1011.80 1012.30 1012.59 1012.66 1012.57 1012.38 1012.17 1012.01 1011.94 1011.95 1012.04 1012.17 1012.31 1012.44 1012.56 1012.66 1012.75 1012.82 1012.87 1012.89 1012.85 1012.76 1012.63
1005.28 1006.76 1008.06 1009.02 1009.54 1009.61 1009.32 1008.81 1008.26 1007.82 1007.63 1007.70 1007.99 1008.42 1008.85 1009.18 1009.32 1009.28 1009.12 1008.93 1008.83 1008.91 1009.20 1009.69 1010.33 1011.00 1011.60 1012.05 1012.32 1012.41 1012.36 1012.25 1012.13 1012.06 1012.06 1012.13 1012.25 1012.38 1012.51 1012.62 1012.73 1012.82 1012.92 1013.01 1013.08 1013.11 1013.07 1012.97 1012.82
1005.19 1006.53 1007.66 1008.46 1008.86 1008.88 1008.61 1008.21 1007.82 1007.60 1007.62 1007.88 1008.32 1008.83 1009.30 1009.61 1009.72 1009.64 1009.43 1009.22 1009.09 1009.13 1009.37 1009.79 1010.33 1010.88 1011.37 1011.73 1011.94 1012.01 1012.00 1011.95 1011.93 1011.97 1012.08 1012.22 1012.38 1012.53 1012.65 1012.73 1012.80 1012.87 1012.96 1013.05 1013.13 1013.17 1013.14 1013.04 1012.87
1004.95 1006.14 1007.10 1007.75 1008.05 1008.05 1007.84 1007.58 1007.39 1007.40 1007.63 1008.07 1008.63 1009.22 1009.70 1010.00 1010.09 1009.98 1009.77 1009.55 1009.42 1009.44 1009.64 1009.99 1010.41 1010.83 1011.18 1011.41 1011.53 1011.55 1011.54 1011.56 1011.63 1011.78 1011.99 1012.22 1012.43 1012.60 1012.71 1012.76 1012.80 1012.84 1012.90 1012.98 1013.06 1013.12 1013.11 1013.01 1012.85
1004.75 1005.77 1006.56 1007.07 1007.29 1007.28 1007.15 1007.04 1007.04 1007.24 1007.66 1008.24 1008.89 1009.51 1009.99 1010.28 1010.35 1010.24 1010.05 1009.86 1009.76 1009.80 1009.98 1010.26 1010.58 1010.87 1011.07 1011.16 1011.17 1011.13 1011.11 1011.16 1011.31 1011.54 1011.84 1012.15 1012.41 1012.60 1012.70 1012.73 1012.73 1012.74 1012.78 1012.85 1012.94 1013.02 1013.04 1012.97 1012.83
1004.74 1005.60 1006.22 1006.59 1006.73 1006.71 1006.65 1006.66 1006.81 1007.17 1007.71 1008.37 1009.07 1009.69 1010.15 1010.40 1010.46 1010.37 1010.22 1010.09 1010.05 1010.13 1010.32 1010.57 1010.81 1010.99 1011.06 1011.03 1010.94 1010.83 1010.79 1010.85 1011.04 1011.34 1011.70 1012.06 1012.36 1012.56 1012.66 1012.67 1012.64 1012.63 1012.65 1012.72 1012.83 1012.93 1012.99 1012.98 1012.88
1005.01 1005.71 1006.17 1006.40 1006.45 1006.41 1006.38 1006.47 1006.72 1007.17 1007.78 1008.47 1009.16 1009.74 1010.16 1010.39 1010.44 1010.37 1010.28 1010.22 1010.26 1010.40 1010.63 1010.87 1011.08 1011.19 1011.17 1011.06 1010.88 1010.72 1010.65 1010.70 1010.90 1011.23 1011.61 1011.99 1012.30 1012.51 1012.60 1012.60 1012.56 1012.53 1012.55 1012.63 1012.76 1012.91 1013.02 1013.06 1013.02
1005.59 1006.13 1006.41 1006.50 1006.45 1006.36 1006.34 1006.46 1006.75 1007.24 1007.86 1008.53 1009.18 1009.71 1010.08 1010.27 1010.32 1010.29 1010.25 1010.27 1010.39 1010.60 1010.88 1011.14 1011.34 1011.42 1011.37 1011.22 1011.01 1010.82 1010.72 1010.75 1010.94 1011.25 1011.62 1011.99 1012.29 1012.48 1012.56 1012.56 1012.52 1012.49 1012.52 1012.62 1012.77 1012.96 1013.12 1013.22 1013.24
1006.37 1006.73 1006.85 1006.79 1006.64 1006.50 1006.45 1006.57 1006.87 1007.34 1007.94 1008.57 1009.15 1009.62 1009.95 1010.12 1010.18 1010.18 1010.20 1010.29 1010.48 1010.75 1011.06 1011.36 1011.57 1011.67 1011.63 1011.48 1011.28 1011.09 1010.98 1011.00 1011.15 1011.41 1011.73 1012.06 1012.32 1012.49 1012.56 1012.56 1012.53 1012.52 1012.56 1012.68 1012.87 1013.08 1013.29 1013.44 1013.53
1007.17 1007.35 1007.31 1007.13 1006.90 1006.70 1006.63 1006.73 1007.01 1007.45 1007.99 1008.56 1009.09 1009.52 1009.83 1010.00 1010.09 1010.13 1010.20 1010.34 1010.56 1010.86 1011.19 1011.51 1011.75 1011.88 1011.89 1011.79 1011.64 1011.48 1011.38 1011.38 1011.49 1011.69 1011.94 1012.20 1012.41 1012.54 1012.61 1012.61 1012.60 1012.62 1012.69 1012.83 1013.03 1013.27 1013.50 1013.70 1013.83
1007.78 1007.81 1007.65 1007.38 1007.10 1006.89 1006.80 1006.88 1007.13 1007.52 1008.01 1008.52 1009.01 1009.41 1009.72 1009.93 1010.06 1010.16 1010.28 1010.44 1010.67 1010.96 1011.28 1011.59 1011.85 1012.03 1012.10 1012.09 1012.01 1011.92 1011.86 1011.85 1011.92 1012.04 1012.21 1012.38 1012.53 1012.63 1012.68 1012.70 1012.72 1012.77 1012.87 1013.02 1013.24 1013.48 1013.73 1013.94 1014.11
1008.05 1007.97 1007.74 1007.46 1007.20 1007.01 1006.94 1007.01 1007.21 1007.54 1007.96 1008.41 1008.86 1009.27 1009.61 1009.88 1010.09 1010.26 1010.42 1010.60 1010.81 1011.07 1011.34 1011.62 1011.88 1012.09 1012.23 1012.32 1012.34 1012.34 1012.33 1012.33 1012.36 1012.42 1012.50 1012.59 1012.66 1012.73 1012.78 1012.82 1012.88 1012.96 1013.09 1013.26 1013.47 1013.70 1013.94 1014.16 1014.33
1007.90 1007.78 1007.58 1007.37 1007.20 1007.08 1007.05 1007.11 1007.27 1007.51 1007.83 1008.21 1008.61 1009.03 1009.42 1009.78 1010.09 1010.36 1010.58 1010.78 1010.97 1011.17 1011.38 1011.60 1011.84 1012.07 1012.28 1012.46 1012.60 1012.69 1012.75 1012.78 1012.78 1012.78 1012.78 1012.78 1012.80 1012.83 1012.88 1012.95 1013.05 1013.18 1013.33 1013.51 1013.70 1013.91 1014.13 1014.32 1014.50
1007.37 1007.30 1007.24 1007.20 1007.18 1007.19 1007.22 1007.26 1007.33 1007.45 1007.63 1007.88 1008.22 1008.62 1009.08 1009.54 1009.99 1010.37 1010.68 1010.92 1011.10 1011.24 1011.38 1011.54 1011.74 1011.98 1012.25 1012.52 1012.76 1012.96 1013.09 1013.16 1013.15 1013.10 1013.03 1012.96 1012.92 1012.93 1012.98 1013.09 1013.23 1013.39 1013.57 1013.75 1013.93 1014.10 1014.27 1014.44 1014.60
1006.59 1006.69 1006.85 1007.06 1007.27 1007.44 1007.52 1007.52 1007.46 1007.38 1007.36 1007.43 1007.65 1008.02 1008.52 1009.09 1009.68 1010.22 1010.65 1010.97 1011.16 1011.28 1011.36 1011.46 1011.62 1011.85 1012.16 1012.51 1012.85 1013.15 1013.36 1013.46 1013.45 1013.37 1013.24 1013.11 1013.03 1013.02 1013.08 1013.22 1013.40 1013.60 1013.80 1013.98 1014.13 1014.27 1014.39 1014.51 1014.65
1005.74 1006.11 1006.60 1007.13 1007.60 1007.93 1008.05 1007.96 1007.70 1007.35 1007.04 1006.87 1006.91 1007.20 1007.71 1008.39 1009.14 1009.85 1010.45 1010.88 1011.14 1011.26 1011.31 1011.37 1011.49 1011.72 1012.06 1012.47 1012.89 1013.27 1013.55 1013.69 1013.69 1013.58 1013.41 1013.24 1013.13 1013.10 1013.17 1013.34 1013.56 1013.80 1014.02 1014.19 1014.31 1014.40 1014.46 1014.54 1014.65
1005.03 1005.74 1006.60 1007.48 1008.22 1008.69 1008.81 1008.57 1008.05 1007.38 1006.72 1006.23 1006.04 1006.20 1006.70 1007.47 1008.38 1009.28 1010.07 1010.65 1011.01 1011.18 1011.25 1011.29 1011.39 1011.61 1011.96 1012.41 1012.89 1013.34 1013.67 1013.85 1013.86 1013.74 1013.55 1013.35 1013.20 1013.17 1013.25 1013.44 1013.70 1013.96 1014.20 1014.36 1014.46 1014.50 1014.51 1014.54 1014.61
1004.58 1005.66 1006.90 1008.11 1009.09 1009.66 1009.74 1009.32 1008.50 1007.46 1006.41 1005.58 1005.12 1005.13 1005.59 1006.42 1007.47 1008.57 1009.55 1010.31 1010.80 1011.07 1011.17 1011.21 1011.31 1011.52 1011.88 1012.35 1012.87 1013.35 1013.73 1013.93 1013.96 1013.84 1013.63 1013.41 1013.25 1013.21 1013.30 1013.52 1013.80 1014.09 1014.33 1014.49 1014.56 1014.56 1014.53 1014.50 1014.54
1004.42 1005.84 1007.42 1008.91 1010.08 1010.71 1010.72 1010.10 1008.97 1007.56 1006.14 1004.97 1004.25 1004.08 1004.48 1005.35 1006.52 1007.79 1008.96 1009.89 1010.54 1010.90 1011.07 1011.14 1011.24 1011.45 1011.80 1012.27 1012.80 1013.31 1013.71 1013.93 1013.97 1013.85 1013.63 1013.41 1013.25 1013.21 1013.31 1013.54 1013.84 1014.15 1014.41 1014.57 1014.62 1014.58 1014.51 1014.44 1014.43
1004.50 1006.19 1008.02 1009.71 1010.99 1011.64 1011.55 1010.75 1009.36 1007.65 1005.91 1004.45 1003.50 1003.18 1003.51 1004.39 1005.64 1007.04 1008.36 1009.44 1010.22 1010.69 1010.92 1011.03 1011.14 1011.34 1011.68 1012.14 1012.67 1013.19 1013.59 1013.83 1013.87 1013.76 1013.55 1013.33 1013.17 1013.14 1013.25 1013.50 1013.82 1014.14 1014.41 1014.57 1014.61 1014.56 1014.45 1014.35 1014.31
1004.69 1006.53 1008.50 1010.28 1011.60 1012.23 1012.06 1011.12 1009.56 1007.64 1005.69 1004.04 1002.93 1002.49 1002.76 1003.63 1004.91 1006.38 1007.79 1008.97 1009.85 1010.40 1010.69 1010.84 1010.96 1011.16 1011.49 1011.94 1012.46 1012.96 1013.37 1013.61 1013.67 1013.57 1013.37 1013.16 1013.01 1012.99 1013.12 1013.38 1013.71 1014.05 1014.32 1014.49 1014.53 1014.47 1014.34 1014.21 1014.15
1004.87 1006.73 1008.69 1010.46 1011.75 1012.33 1012.11 1011.10 1009.48 1007.48 1005.47 1003.74 1002.56 1002.06 1002.27 1003.10 1004.37 1005.83 1007.26 1008.48 1009.40 1009.99 1010.33 1010.51 1010.66 1010.87 1011.20 1011.64 1012.14 1012.64 1013.04 1013.28 1013.35 1013.27 1013.09 1012.90 1012.77 1012.77 1012.91 1013.17 1013.52 1013.87 1014.15 1014.33 1014.38 1014.31 1014.18 1014.04 1013.95
1004.94 1006.67 1008.50 1010.15 1011.34 1011.86 1011.63 1010.65 1009.08 1007.16 1005.22 1003.55 1002.39 1001.88 1002.05 1002.81 1004.00 1005.39 1006.76 1007.94 1008.85 1009.46 1009.82 1010.03 1010.21 1010.44 1010.78 1011.22 1011.73 1012.21 1012.62 1012.87 1012.96 1012.90 1012.75 1012.58 1012.48 1012.49 1012.63 1012.91 1013.25 1013.60 1013.90 1014.08 1014.14 1014.09 1013.96 1013.81 1013.71
1004.86 1006.35 1007.93 1009.36 1010.40 1010.86 1010.65 1009.78 1008.39 1006.68 1004.94 1003.44 1002.39 1001.92 1002.06 1002.73 1003.79 1005.04 1006.27 1007.36 1008.20 1008.78 1009.15 1009.40 1009.61 1009.89 1010.25 1010.72 1011.23 1011.72 1012.13 1012.40 1012.51 1012.48 1012.36 1012.23 1012.15 1012.17 1012.33 1012.59 1012.93 1013.27 1013.57 1013.76 1013.82 1013.78 1013.66 1013.52 1013.42
1004.70 1005.84 1007.09 1008.24 1009.10 1009.49 1009.34 1008.64 1007.50 1006.10 1004.66 1003.41 1002.53 1002.14 1002.25 1002.81 1003.70 1004.75 1005.80 1006.73 1007.47 1008.00 1008.36 1008.64 1008.91 1009.24 1009.65 1010.15 1010.68 1011.19 1011.62 1011.91 1012.05 1012.05 1011.97 1011.87 1011.82 1011.86 1012.00 1012.26 1012.58 1012.90 1013.17 1013.35 1013.42 1013.39 1013.28 1013.15 1013.05
Thickness
5832 5833 5831 5821 5798 5785 5787 5798 5805 5804 5806 5813 5815 5808 5795 5787 5777 5766 5790 5801 5799 5795 5792 5789 5788 5787 5786 5785 5785 5784 5783 5783 5783 5783 5783 5782 5781 5780 5779 5778 5777 5777 5776 5775 5775 5774 5773 5772 5771
5841 5840 5829 5814 5788 5777 5786 5802 5802 5805 5813 5818 5815 5808 5797 5789 5794 5790 5795 5799 5799 5796 5792 5789 5787 5787 5786 5785 5784 5783 5783 5782 5782 5782 5782 5781 5780 5779 5778 5777 5777 5776 5775 5774 5773 5772 5772 5771 5770
5843 5843 5821 5807 5796 5789 5789 5805 5808 5814 5821 5817 5809 5805 5795 5787 5793 5793 5797 5800 5799 5795 5792 5789 5789 5788 5786 5785 5783 5783 5782 5782 5782 5781 5781 5780 5779 5778 5777 5776 5775 5774 5774 5773 5772 5771 5771 5770 5769
5843 5836 5822 5808 5800 5808 5809 5813 5817 5814 5816 5817 5809 5795 5794 5800 5798 5798 5801 5801 5797 5794 5792 5790 5790 5789 5787 5785 5783 5782 5781 5781 5781 5781 5780 5779 5778 5777 5776 5776 5774 5773 5772 5771 5771 5770 5770 5769 5768
5842 5827 5808 5802 5806 5816 5822 5824 5822 5812 5809 5809 5804 5787 5785 5799 5805 5804 5802 5801 5796 5794 5791 5788 5788 5787 5786 5785 5783 5782 5781 5781 5780 5780 5780 5778 5777 5776 5776 5775 5774 5772 5771 5770 5769 5769 5768 5768 5768
5831 5825 5803 5797 5806 5818 5825 5830 5824 5813 5809 5809 5801 5788 5785 5800 5802 5802 5802 5800 5798 5795 5791 5788 5786 5785 5785 5783 5782 5782 5781 5780 5780 5780 5779 5778 5776 5775 5774 5774 5773 5772 5771 5770 5769 5768 5767 5767 5767
5827 5817 5811 5810 5808 5811 5823 5832 5823 5814 5808 5809 5809 5790 5788 5797 5802 5804 5802 5801 5799 5796 5792 5789 5787 5785 5784 5783 5782 5782 5781 5780 5780 5779 5778 5777 5776 5775 5774 5773 5773 5771 5770 5769 5768 5768 5767 5767 5767
5848 5828 5818 5819 5812 5811 5828 5832 5829 5820 5811 5822 5818 5793 5785 5796 5805 5805 5802 5800 5799 5797 5795 5792 5790 5788 5785 5784 5782 5782 5781 5780 5780 5779 5778 5777 5776 5775 5774 5773 5772 5771 5770 5769 5768 5767 5767 5767 5767
5860 5826 5817 5821 5818 5819 5833 5828 5830 5832 5822 5820 5819 5808 5803 5807 5807 5802 5797 5796 5795 5795 5795 5794 5792 5791 5789 5786 5784 5782 5782 5780 5780 5779 5778 5777 5776 5775 5774 5773 5772 5770 5770 5769 5768 5767 5767 5766 5767
5853 5825 5827 5840 5839 5833 5834 5831 5830 5824 5814 5810 5809 5810 5811 5809 5805 5799 5794 5792 5791 5792 5794 5795 5794 5792 5791 5789 5785 5784 5783 5781 5781 5780 5779 5778 5777 5777 5775 5773 5772 5771 5770 5769 5768 5767 5766 5766 5768
5856 5837 5844 5849 5851 5845 5836 5833 5837 5822 5807 5808 5804 5805 5808 5806 5803 5799 5796 5794 5793 5795 5795 5796 5795 5793 5792 5789 5787 5786 5785 5783 5782 5781 5780 5779 5778 5776 5775 5773 5771 5771 5770 5770 5769 5768 5768 5769 5769
5854 5851 5854 5852 5855 5848 5840 5837 5831 5824 5818 5823 5819 5815 5809 5805 5802 5800 5798 5796 5796 5796 5796 5797 5796 5794 5792 5790 5789 5788 5786 5785 5784 5782 5781 5780 5778 5777 5776 5774 5773 5773 5773 5772 5771 5770 5770 5770 5771
5854 5853 5859 5860 5857 5851 5845 5837 5831 5826 5831 5830 5823 5817 5810 5807 5806 5805 5803 5801 5799 5797 5797 5797 5796 5793 5792 5790 5789 5789 5787 5786 5785 5782 5781 5780 5778 5777 5776 5775 5775 5774 5774 5773 5772 5772 5771 5771 5772
5859 5857 5858 5859 5856 5853 5841 5836 5832 5828 5834 5826 5820 5815 5813 5810 5808 5806 5803 5801 5800 5798 5798 5798 5796 5794 5792 5790 5788 5788 5788 5786 5785 5783 5781 5780 5778 5777 5776 5776 5775 5775 5774 5773 5772 5772 5772 5771 5771
5865 5848 5847 5857 5857 5853 5844 5825 5828 5835 5834 5823 5819 5817 5815 5814 5812 5808 5806 5804 5803 5801 5800 5799 5798 5795 5793 5791 5789 5789 5787 5786 5785 5783 5781 5779 5778 5777 5777 5776 5775 5775 5774 5774 5773 5772 5772 5770 5770
5854 5839 5829 5850 5859 5856 5837 5810 5831 5842 5834 5823 5821 5819 5816 5815 5815 5813 5811 5809 5807 5805 5801 5801 5801 5796 5794 5792 5790 5789 5788 5786 5785 5783 5781 5779 5778 5778 5778 5777 5776 5776 5776 5775 5773 5772 5771 5769 5769
5835 5824 5826 5842 5861 5857 5842 5822 5836 5846 5837 5826 5824 5821 5818 5815 5816 5816 5815 5812 5809 5806 5803 5801 5800 5797 5794 5793 5791 5789 5788 5786 5785 5784 5782 5780 5779 5779 5779 5778 5777 5777 5777 5776 5775 5772 5770 5768 5767
5819 5827 5833 5838 5856 5854 5841 5835 5841 5847 5841 5832 5828 5825 5821 5817 5817 5819 5818 5815 5812 5808 5805 5802 5800 5798 5796 5794 5791 5789 5788 5787 5786 5784 5782 5781 5780 5780 5780 5779 5779 5779 5777 5775 5774 5772 5771 5769 5768
5841 5838 5838 5847 5863 5853 5842 5839 5844 5848 5844 5837 5832 5828 5824 5821 5824 5823 5821 5818 5813 5809 5805 5803 5800 5798 5796 5793 5790 5787 5785 5786 5786 5785 5784 5782 5781 5781 5780 5780 5779 5778 5776 5775 5775 5773 5771 5769 5769
5845 5837 5838 5851 5865 5853 5842 5842 5850 5851 5847 5845 5838 5833 5829 5826 5824 5822 5821 5819 5814 5810 5807 5804 5801 5799 5797 5795 5793 5791 5790 5789 5788 5786 5784 5783 5782 5781 5782 5780 5779 5779 5777 5775 5775 5773 5770 5769 5770
5845 5840 5840 5845 5855 5853 5837 5827 5839 5850 5854 5851 5849 5844 5839 5833 5827 5824 5822 5821 5817 5812 5809 5807 5804 5801 5799 5798 5796 5794 5791 5789 5786 5784 5783 5783 5783 5782 5781 5780 5780 5780 5778 5776 5775 5773 5770 5767 5769
5837 5857 5853 5850 5839 5830 5832 5799 5822 5842 5844 5846 5848 5847 5843 5841 5836 5830 5826 5823 5820 5817 5815 5811 5806 5803 5801 5800 5797 5792 5787 5784 5784 5785 5785 5785 5784 5783 5782 5781 5781 5780 5779 5777 5776 5775 5773 5769 5765
5852 5864 5854 5847 5836 5827 5832 5812 5818 5843 5836 5843 5849 5851 5849 5847 5841 5835 5832 5828 5826 5823 5818 5814 5809 5805 5803 5801 5798 5794 5791 5789 5789 5788 5785 5784 5784 5784 5783 5781 5781 5780 5778 5777 5776 5774 5773 5771 5767
5864 5857 5850 5845 5832 5809 5827 5818 5813 5838 5843 5848 5852 5853 5852 5850 5846 5841 5838 5833 5829 5827 5821 5816 5810 5806 5804 5801 5799 5795 5792 5790 5788 5786 5784 5784 5784 5784 5783 5782 5781 5780 5779 5777 5776 5775 5773 5771 5769
5855 5833 5812 5804 5802 5808 5843 5831 5829 5855 5864 5860 5855 5855 5856 5854 5848 5843 5838 5832 5829 5827 5822 5818 5811 5806 5805 5802 5800 5797 5795 5792 5789 5787 5786 5785 5784 5783 5783 5784 5781 5781 5779 5778 5777 5774 5773 5772 5769
5846 5837 5808 5791 5797 5814 5835 5828 5842 5870 5873 5872 5867 5864 5859 5855 5851 5846 5841 5836 5832 5829 5825 5819 5812 5807 5805 5803 5801 5799 5797 5794 5792 5790 5789 5788 5787 5786 5785 5784 5782 5781 5780 5780 5777 5775 5774 5772 5770
5839 5838 5849 5828 5817 5808 5818 5835 5850 5868 5866 5866 5865 5862 5857 5855 5853 5849 5845 5840 5836 5832 5828 5822 5815 5810 5807 5805 5802 5800 5798 5796 5794 5793 5791 5790 5788 5788 5786 5784 5783 5781 5780 5779 5776 5774 5772 5771 5769
5854 5849 5840 5821 5796 5788 5804 5817 5827 5842 5849 5857 5858 5857 5856 5854 5853 5850 5844 5842 5840 5835 5831 5826 5820 5814 5810 5807 5803 5801 5798 5796 5795 5793 5791 5789 5789 5788 5786 5784 5782 5780 5779 5777 5775 5773 5772 5770 5768
5840 5837 5834 5825 5819 5794 5785 5810 5854 5853 5856 5856 5858 5859 5857 5853 5852 5850 5844 5844 5842 5838 5833 5826 5821 5815 5811 5808 5804 5802 5799 5797 5794 5792 5791 5789 5787 5786 5784 5783 5781 5779 5777 5776 5774 5772 5771 5768 5766
5848 5841 5835 5812 5807 5812 5801 5811 5863 5863 5866 5864 5861 5860 5858 5856 5855 5851 5847 5844 5841 5836 5833 5827 5822 5817 5813 5810 5805 5802 5799 5797 5793 5791 5790 5788 5786 5785 5783 5782 5779 5778 5776 5775 5772 5770 5769 5767 5764